CDT,Max TemperatureF,Mean TemperatureF,Min TemperatureF,Max Dew PointF,MeanDew PointF,Min DewpointF,Max Humidity, Mean Humidity, Min Humidity, Max Sea Level PressureIn, Mean Sea Level PressureIn, Min Sea Level PressureIn, Max VisibilityMiles, Mean VisibilityMiles, Min VisibilityMiles, Max Wind SpeedMPH, Mean Wind SpeedMPH, Max Gust SpeedMPH,PrecipitationIn, CloudCover, Events, WindDirDegrees
2012-10-1,71,61,50,52,48,43,86,62,37,29.84,29.80,29.76,10,10,10,22,7,26,0.00,0,,3
2012-10-2,71,59,47,51,48,44,89,70,51,29.92,29.88,29.83,10,10,9,13,4,16,0.00,0,,312
2012-10-3,75,62,49,53,49,43,89,61,33,30.03,29.97,29.92,10,10,10,15,6,20,0.00,0,,178
2012-10-4,79,66,52,58,54,46,86,66,45,30.15,30.11,30.03,10,10,10,16,11,21,0.00,2,,209
2012-10-5,53,44,35,45,42,34,93,81,68,30.27,30.17,30.14,10,8,2,22,12,28,0.15,7,Rain-Thunderstorm,19
2012-10-6,47,40,33,35,33,29,96,75,53,30.31,30.28,30.25,10,10,10,16,6,18,T,6,,344
2012-10-7,53,42,31,34,30,27,92,66,39,30.32,30.27,30.20,10,10,10,13,3,16,0.00,1,,316
2012-10-8,58,45,31,35,32,29,89,65,40,30.23,30.15,30.06,10,10,9,16,7,22,0.00,0,,191
2012-10-9,65,53,40,54,45,37,93,71,48,30.08,30.01,29.92,10,9,2,23,10,29,0.02,4,Rain,206
2012-10-10,60,48,36,48,36,29,92,63,33,30.30,30.21,30.09,10,10,10,16,4,22,0.00,2,,24
2012-10-11,62,54,45,52,45,34,80,68,56,30.19,30.14,30.08,10,10,8,18,11,23,0.01,8,Rain,156
2012-10-12,63,60,56,57,55,51,93,86,78,30.27,30.18,30.14,10,7,1,20,11,41,0.95,7,Rain,117
2012-10-13,74,65,56,64,60,55,100,82,64,30.15,29.94,29.77,10,5,1,33,17,43,2.31,8,Rain-Thunderstorm,172
2012-10-14,69,59,48,61,53,42,93,69,45,30.04,29.82,29.65,10,10,6,24,12,32,0.01,4,Rain-Thunderstorm,241
2012-10-15,75,60,44,52,46,41,89,64,38,30.04,29.97,29.90,10,9,1,16,6,,0.00,0,,210
2012-10-16,77,65,52,48,44,38,77,51,25,29.88,29.76,29.62,10,10,10,25,13,31,0.00,0,,184
2012-10-17,67,58,49,58,51,36,90,73,56,29.70,29.55,29.45,10,9,1,32,11,40,0.29,5,Rain,221
2012-10-18,60,50,40,36,30,24,76,51,26,29.78,29.73,29.70,10,10,10,31,15,41,0.00,2,,267
2012-10-19,53,46,39,39,35,33,85,68,50,29.86,29.78,29.68,10,10,10,22,11,29,0.00,7,,279
2012-10-20,73,56,38,45,40,35,92,62,32,29.90,29.84,29.77,10,10,10,15,8,18,0.00,0,,164
2012-10-21,77,67,56,63,55,44,81,72,62,29.90,29.85,29.81,10,10,10,17,13,23,0.00,3,,160
2012-10-22,79,72,65,64,63,61,93,77,60,29.94,29.89,29.83,10,10,10,26,15,31,0.11,2,Rain-Thunderstorm,181
2012-10-23,77,69,60,64,60,57,93,77,60,29.93,29.88,29.83,10,10,3,24,13,30,0.41,3,Rain-Thunderstorm,178
2012-10-24,80,71,62,63,60,58,86,70,51,29.95,29.88,29.79,10,10,10,22,16,32,0.00,1,,172
2012-10-25,72,57,42,62,50,34,93,83,66,30.19,29.93,29.77,10,9,4,25,16,33,0.03,6,Rain,292
2012-10-26,48,40,31,34,29,26,85,64,44,30.37,30.31,30.19,10,10,10,23,14,28,0.00,4,,360
2012-10-27,48,38,27,29,27,25,89,70,41,30.36,30.30,30.23,10,10,10,15,8,17,0.00,0,,5
2012-10-28,51,38,25,30,27,23,89,65,35,30.33,30.28,30.24,10,10,8,15,5,18,0.00,0,,5
2012-10-29,55,41,27,32,27,23,85,59,28,30.34,30.25,30.13,10,10,9,8,2,13,0.00,2,Snow,96
2012-10-30,60,46,32,34,30,26,79,55,25,30.13,30.04,29.94,10,10,10,9,3,15,0.00,2,,72
2012-10-31,59,48,37,36,31,27,76,52,23,30.05,30.02,29.98,10,10,8,12,4,15,0.00,1,,358